Year,Month,Day,Hour,Minute,Value (Times are PST for windgust in km/hr)
2017,04,06,00,00,3.20
2017,04,06,00,01,3.20
2017,04,06,00,05,1.60
2017,04,06,00,06,6.40
2017,04,06,00,07,1.60
2017,04,06,00,09,1.60
2017,04,06,00,11,1.60
2017,04,06,00,13,1.60
2017,04,06,00,14,1.60
2017,04,06,00,19,1.60
2017,04,06,00,20,3.20
2017,04,06,00,21,1.60
2017,04,06,00,22,1.60
2017,04,06,00,23,1.60
2017,04,06,00,26,1.60
2017,04,06,00,27,3.20
2017,04,06,00,28,1.60
2017,04,06,00,33,1.60
2017,04,06,00,34,1.60
2017,04,06,00,35,1.60
2017,04,06,00,38,1.60
2017,04,06,00,51,1.60
2017,04,06,00,53,1.60
2017,04,06,00,54,3.20
2017,04,06,00,55,1.60
2017,04,06,01,03,3.20
2017,04,06,01,07,1.60
2017,04,06,01,08,3.20
2017,04,06,01,09,1.60
2017,04,06,01,12,1.60
2017,04,06,01,13,1.60
2017,04,06,01,14,1.60
2017,04,06,01,15,1.60
2017,04,06,01,16,1.60
2017,04,06,01,18,1.60
2017,04,06,01,19,1.60
2017,04,06,01,21,3.20
2017,04,06,01,22,3.20
2017,04,06,01,23,3.20
2017,04,06,01,24,3.20
2017,04,06,01,25,3.20
2017,04,06,01,26,3.20
2017,04,06,01,27,3.20
2017,04,06,01,28,1.60
2017,04,06,01,29,1.60
2017,04,06,01,30,6.40
2017,04,06,01,31,3.20
2017,04,06,01,32,1.60
2017,04,06,01,35,1.60
2017,04,06,01,36,3.20
2017,04,06,01,37,3.20
2017,04,06,01,38,1.60
2017,04,06,01,39,1.60
2017,04,06,01,40,6.40
2017,04,06,01,41,3.20
2017,04,06,01,42,6.40
2017,04,06,01,43,3.20
2017,04,06,01,44,1.60
2017,04,06,01,45,3.20
2017,04,06,01,46,3.20
2017,04,06,01,47,3.20
2017,04,06,01,48,3.20
2017,04,06,01,49,3.20
2017,04,06,01,56,1.60
2017,04,06,01,57,1.60
2017,04,06,01,58,3.20
2017,04,06,02,11,8.10
2017,04,06,02,12,6.40
2017,04,06,02,13,8.10
2017,04,06,02,14,9.60
2017,04,06,02,15,11.30
2017,04,06,02,16,16.10
2017,04,06,02,17,12.90
2017,04,06,02,18,16.10
2017,04,06,02,19,11.30
2017,04,06,02,20,12.90
2017,04,06,02,21,20.90
2017,04,06,02,22,19.30
2017,04,06,02,23,20.90
2017,04,06,02,24,14.50
2017,04,06,02,25,12.90
2017,04,06,02,26,12.90
2017,04,06,02,27,11.30
2017,04,06,02,28,14.50
2017,04,06,02,29,14.50
2017,04,06,02,30,16.10
2017,04,06,02,31,9.60
2017,04,06,02,32,14.50
2017,04,06,02,33,11.30
2017,04,06,02,34,17.70
2017,04,06,02,35,19.30
2017,04,06,02,36,19.30
2017,04,06,02,37,19.30
2017,04,06,02,38,20.90
2017,04,06,02,39,17.70
2017,04,06,02,40,17.70
2017,04,06,02,41,12.90
2017,04,06,02,42,11.30
2017,04,06,02,43,11.30
2017,04,06,02,44,17.70
2017,04,06,02,45,16.10
2017,04,06,02,46,19.30
2017,04,06,02,47,11.30
2017,04,06,02,48,12.90
2017,04,06,02,49,19.30
2017,04,06,02,50,19.30
2017,04,06,02,51,20.90
2017,04,06,02,52,16.10
2017,04,06,02,53,17.70
2017,04,06,02,54,16.10
2017,04,06,02,55,22.50
2017,04,06,02,56,12.90
2017,04,06,02,57,17.70
2017,04,06,02,58,22.50
2017,04,06,02,59,11.30
2017,04,06,03,00,17.70
2017,04,06,03,01,17.70
2017,04,06,03,02,14.50
2017,04,06,03,03,17.70
2017,04,06,03,04,16.10
2017,04,06,03,05,12.90
2017,04,06,03,06,9.60
2017,04,06,03,07,17.70
2017,04,06,03,08,16.10
2017,04,06,03,09,12.90
2017,04,06,03,10,12.90
2017,04,06,03,11,9.60
2017,04,06,03,12,17.70
2017,04,06,03,13,17.70
2017,04,06,03,14,12.90
2017,04,06,03,15,8.10
2017,04,06,03,16,8.10
2017,04,06,03,17,16.10
2017,04,06,03,18,16.10
2017,04,06,03,19,16.10
2017,04,06,03,20,9.60
2017,04,06,03,21,12.90
2017,04,06,03,22,16.10
2017,04,06,03,23,19.30
2017,04,06,03,24,9.60
2017,04,06,03,25,9.60
2017,04,06,03,26,12.90
2017,04,06,03,27,9.60
2017,04,06,03,28,12.90
2017,04,06,03,29,9.60
2017,04,06,03,30,11.30
2017,04,06,03,31,11.30
2017,04,06,03,32,9.60
2017,04,06,03,33,12.90
2017,04,06,03,34,12.90
2017,04,06,03,35,9.60
2017,04,06,03,36,9.60
2017,04,06,03,37,6.40
2017,04,06,03,38,8.10
2017,04,06,03,39,11.30
2017,04,06,03,40,6.40
2017,04,06,03,41,11.30
2017,04,06,03,42,8.10
2017,04,06,03,43,4.80
2017,04,06,03,44,4.80
2017,04,06,03,45,6.40
2017,04,06,03,46,8.10
2017,04,06,03,47,3.20
2017,04,06,03,48,6.40
2017,04,06,03,49,8.10
2017,04,06,03,50,6.40
2017,04,06,03,51,6.40
2017,04,06,03,52,6.40
2017,04,06,03,53,3.20
2017,04,06,03,54,8.10
2017,04,06,03,55,6.40
2017,04,06,03,56,8.10
2017,04,06,03,57,12.90
2017,04,06,03,58,11.30
2017,04,06,03,59,11.30
2017,04,06,04,00,12.90
2017,04,06,04,01,14.50
2017,04,06,04,02,9.60
2017,04,06,04,03,4.80
2017,04,06,04,04,8.10
2017,04,06,04,05,11.30
2017,04,06,04,06,16.10
2017,04,06,04,07,16.10
2017,04,06,04,08,16.10
2017,04,06,04,09,11.30
2017,04,06,04,10,11.30
2017,04,06,04,11,8.10
2017,04,06,04,12,9.60
2017,04,06,04,13,12.90
2017,04,06,04,14,9.60
2017,04,06,04,15,6.40
2017,04,06,04,16,8.10
2017,04,06,04,17,6.40
2017,04,06,04,18,11.30
2017,04,06,04,19,11.30
2017,04,06,04,20,8.10
2017,04,06,04,21,12.90
2017,04,06,04,22,9.60
2017,04,06,04,23,11.30
2017,04,06,04,24,17.70
2017,04,06,04,25,6.40
2017,04,06,04,26,9.60
2017,04,06,04,27,6.40
2017,04,06,04,28,8.10
2017,04,06,04,29,11.30
2017,04,06,04,30,9.60
2017,04,06,04,31,12.90
2017,04,06,04,32,9.60
2017,04,06,04,33,8.10
2017,04,06,04,34,9.60
2017,04,06,04,35,8.10
2017,04,06,04,36,8.10
2017,04,06,04,37,8.10
2017,04,06,04,38,9.60
2017,04,06,04,39,9.60
2017,04,06,04,40,9.60
2017,04,06,04,41,9.60
2017,04,06,04,42,4.80
2017,04,06,04,43,8.10
2017,04,06,04,44,6.40
2017,04,06,04,45,6.40
2017,04,06,04,46,9.60
2017,04,06,04,47,8.10
2017,04,06,04,48,12.90
2017,04,06,04,49,9.60
2017,04,06,04,50,8.10
2017,04,06,04,51,4.80
2017,04,06,04,52,4.80
2017,04,06,04,53,6.40
2017,04,06,04,54,8.10
2017,04,06,04,55,6.40
2017,04,06,04,56,8.10
2017,04,06,04,57,6.40
2017,04,06,04,58,9.60
2017,04,06,04,59,8.10
2017,04,06,05,00,6.40
2017,04,06,05,01,9.60
2017,04,06,05,02,8.10
2017,04,06,05,03,8.10
2017,04,06,05,04,8.10
2017,04,06,05,05,8.10
2017,04,06,05,06,4.80
2017,04,06,05,07,9.60
2017,04,06,05,08,9.60
2017,04,06,05,09,11.30
2017,04,06,05,10,11.30
2017,04,06,05,11,6.40
2017,04,06,05,12,6.40
2017,04,06,05,13,11.30
2017,04,06,05,14,9.60
2017,04,06,05,15,6.40
2017,04,06,05,16,16.10
2017,04,06,05,17,11.30
2017,04,06,05,18,11.30
2017,04,06,05,19,9.60
2017,04,06,05,20,6.40
2017,04,06,05,21,11.30
2017,04,06,05,22,19.30
2017,04,06,05,23,14.50
2017,04,06,05,24,12.90
2017,04,06,05,25,17.70
2017,04,06,05,26,11.30
2017,04,06,05,27,16.10
2017,04,06,05,28,16.10
2017,04,06,05,29,16.10
2017,04,06,05,30,16.10
2017,04,06,05,31,16.10
2017,04,06,05,32,16.10
2017,04,06,05,33,12.90
2017,04,06,05,34,14.50
2017,04,06,05,35,11.30
2017,04,06,05,36,9.60
2017,04,06,05,37,8.10
2017,04,06,05,38,11.30
2017,04,06,05,39,11.30
2017,04,06,05,40,11.30
2017,04,06,05,41,19.30
2017,04,06,05,42,12.90
2017,04,06,05,43,12.90
2017,04,06,05,44,12.90
2017,04,06,05,45,12.90
2017,04,06,05,46,14.50
2017,04,06,05,47,12.90
2017,04,06,05,48,20.90
2017,04,06,05,49,11.30
2017,04,06,05,50,17.70
2017,04,06,05,51,24.20
2017,04,06,05,52,20.90
2017,04,06,05,53,12.90
2017,04,06,05,54,17.70
2017,04,06,05,55,12.90
2017,04,06,05,56,17.70
2017,04,06,05,57,17.70
2017,04,06,05,58,20.90
2017,04,06,05,59,22.50
2017,04,06,06,00,17.70
2017,04,06,06,01,19.30
2017,04,06,06,02,20.90
2017,04,06,06,03,24.20
2017,04,06,06,04,12.90
2017,04,06,06,05,19.30
2017,04,06,06,06,20.90
2017,04,06,06,07,17.70
2017,04,06,06,08,17.70
2017,04,06,06,09,16.10
2017,04,06,06,10,17.70
2017,04,06,06,11,25.70
2017,04,06,06,12,19.30
2017,04,06,06,13,25.70
2017,04,06,06,14,32.20
2017,04,06,06,15,30.60
2017,04,06,06,16,16.10
2017,04,06,06,17,29.00
2017,04,06,06,18,20.90
2017,04,06,06,19,16.10
2017,04,06,06,20,17.70
2017,04,06,06,21,17.70
2017,04,06,06,22,19.30
2017,04,06,06,23,17.70
2017,04,06,06,24,20.90
2017,04,06,06,25,24.20
2017,04,06,06,26,22.50
2017,04,06,06,27,11.30
2017,04,06,06,28,16.10
2017,04,06,06,29,19.30
2017,04,06,06,30,22.50
2017,04,06,06,31,27.40
2017,04,06,06,32,16.10
2017,04,06,06,33,25.70
2017,04,06,06,34,25.70
2017,04,06,06,35,25.70
2017,04,06,06,36,16.10
2017,04,06,06,37,17.70
2017,04,06,06,38,19.30
2017,04,06,06,39,22.50
2017,04,06,06,40,19.30
2017,04,06,06,41,16.10
2017,04,06,06,42,17.70
2017,04,06,06,43,22.50
2017,04,06,06,44,17.70
2017,04,06,06,45,20.90
2017,04,06,06,46,27.40
2017,04,06,06,47,19.30
2017,04,06,06,48,22.50
2017,04,06,06,49,25.70
2017,04,06,06,50,22.50
2017,04,06,06,51,16.10
2017,04,06,06,52,29.00
2017,04,06,06,53,29.00
2017,04,06,06,54,22.50
2017,04,06,06,55,20.90
2017,04,06,06,56,29.00
2017,04,06,06,57,32.20
2017,04,06,06,58,20.90
2017,04,06,06,59,29.00
2017,04,06,07,00,19.30
2017,04,06,07,01,19.30
2017,04,06,07,02,25.70
2017,04,06,07,03,22.50
2017,04,06,07,04,33.80
2017,04,06,07,05,20.90
2017,04,06,07,06,14.50
2017,04,06,07,07,25.70
2017,04,06,07,08,29.00
2017,04,06,07,09,20.90
2017,04,06,07,10,30.60
2017,04,06,07,11,17.70
2017,04,06,07,12,22.50
2017,04,06,07,13,17.70
2017,04,06,07,14,27.40
2017,04,06,07,15,29.00
2017,04,06,07,16,24.20
2017,04,06,07,17,22.50
2017,04,06,07,18,29.00
2017,04,06,07,19,33.80
2017,04,06,07,20,24.20
2017,04,06,07,21,32.20
2017,04,06,07,22,30.60
2017,04,06,07,23,17.70
2017,04,06,07,24,29.00
2017,04,06,07,25,35.40
2017,04,06,07,26,29.00
2017,04,06,07,27,25.70
2017,04,06,07,28,24.20
2017,04,06,07,29,33.80
2017,04,06,07,30,29.00
2017,04,06,07,31,27.40
2017,04,06,07,32,27.40
2017,04,06,07,33,25.70
2017,04,06,07,34,27.40
2017,04,06,07,35,30.60
2017,04,06,07,36,22.50
2017,04,06,07,37,24.20
2017,04,06,07,38,24.20
2017,04,06,07,39,27.40
2017,04,06,07,40,33.80
2017,04,06,07,41,33.80
2017,04,06,07,42,30.60
2017,04,06,07,43,20.90
2017,04,06,07,44,20.90
2017,04,06,07,45,22.50
2017,04,06,07,46,29.00
2017,04,06,07,47,29.00
2017,04,06,07,48,22.50
2017,04,06,07,49,29.00
2017,04,06,07,50,37.00
2017,04,06,07,51,32.20
2017,04,06,07,52,33.80
2017,04,06,07,53,38.60
2017,04,06,07,54,24.20
2017,04,06,07,55,29.00
2017,04,06,07,56,32.20
2017,04,06,07,57,33.80
2017,04,06,07,58,30.60
2017,04,06,07,59,22.50
2017,04,06,08,00,20.90
2017,04,06,08,01,27.40
2017,04,06,08,02,29.00
2017,04,06,08,03,30.60
2017,04,06,08,04,20.90
2017,04,06,08,05,30.60
2017,04,06,08,06,38.60
2017,04,06,08,07,27.40
2017,04,06,08,08,22.50
2017,04,06,08,09,33.80
2017,04,06,08,10,29.00
2017,04,06,08,11,46.70
2017,04,06,08,12,32.20
2017,04,06,08,13,33.80
2017,04,06,08,14,30.60
2017,04,06,08,15,32.20
2017,04,06,08,16,40.20
2017,04,06,08,17,43.50
2017,04,06,08,18,48.30
2017,04,06,08,19,49.90
2017,04,06,08,20,38.60
2017,04,06,08,21,37.00
2017,04,06,08,22,30.60
2017,04,06,08,23,37.00
2017,04,06,08,24,29.00
2017,04,06,08,25,33.80
2017,04,06,08,26,49.90
2017,04,06,08,27,30.60
2017,04,06,08,28,30.60
2017,04,06,08,29,38.60
2017,04,06,08,30,33.80
2017,04,06,08,31,35.40
2017,04,06,08,32,46.70
2017,04,06,08,33,35.40
2017,04,06,08,34,37.00
2017,04,06,08,35,38.60
2017,04,06,08,36,38.60
2017,04,06,08,37,51.50
2017,04,06,08,38,38.60
2017,04,06,08,39,37.00
2017,04,06,08,40,43.50
2017,04,06,08,41,38.60
2017,04,06,08,42,37.00
2017,04,06,08,43,41.80
2017,04,06,08,44,32.20
2017,04,06,08,45,40.20
2017,04,06,08,46,48.30
2017,04,06,08,47,35.40
2017,04,06,08,48,40.20
2017,04,06,08,49,40.20
2017,04,06,08,50,40.20
2017,04,06,08,51,38.60
2017,04,06,08,52,48.30
2017,04,06,08,53,48.30
2017,04,06,08,54,54.70
2017,04,06,08,55,51.50
2017,04,06,08,56,41.80
2017,04,06,08,57,32.20
2017,04,06,08,58,35.40
2017,04,06,08,59,35.40
2017,04,06,09,00,35.40
2017,04,06,09,01,35.40
2017,04,06,09,02,30.60
2017,04,06,09,03,33.80
2017,04,06,09,04,33.80
2017,04,06,09,05,29.00
2017,04,06,09,06,37.00
2017,04,06,09,07,19.30
2017,04,06,09,08,40.20
2017,04,06,09,09,32.20
2017,04,06,09,10,33.80
2017,04,06,09,11,22.50
2017,04,06,09,12,25.70
2017,04,06,09,13,25.70
2017,04,06,09,14,25.70
2017,04,06,09,15,19.30
2017,04,06,09,16,24.20
2017,04,06,09,17,22.50
2017,04,06,09,18,33.80
2017,04,06,09,19,29.00
2017,04,06,09,20,20.90
2017,04,06,09,21,35.40
2017,04,06,09,22,35.40
2017,04,06,09,23,41.80
2017,04,06,09,24,32.20
2017,04,06,09,25,19.30
2017,04,06,09,26,33.80
2017,04,06,09,27,35.40
2017,04,06,09,28,35.40
2017,04,06,09,29,22.50
2017,04,06,09,30,27.40
2017,04,06,09,31,35.40
2017,04,06,09,32,38.60
2017,04,06,09,33,32.20
2017,04,06,09,34,32.20
2017,04,06,09,35,33.80
2017,04,06,09,36,40.20
2017,04,06,09,37,30.60
2017,04,06,09,38,22.50
2017,04,06,09,39,27.40
2017,04,06,09,40,27.40
2017,04,06,09,41,33.80
2017,04,06,09,42,24.20
2017,04,06,09,43,19.30
2017,04,06,09,44,29.00
2017,04,06,09,45,29.00
2017,04,06,09,46,29.00
2017,04,06,09,47,27.40
2017,04,06,09,48,24.20
2017,04,06,09,49,30.60
2017,04,06,09,50,22.50
2017,04,06,09,51,20.90
2017,04,06,09,52,20.90
2017,04,06,09,53,20.90
2017,04,06,09,54,20.90
2017,04,06,09,55,17.70
2017,04,06,09,56,14.50
2017,04,06,09,57,19.30
2017,04,06,09,58,20.90
2017,04,06,09,59,19.30
2017,04,06,10,00,12.90
2017,04,06,10,01,17.70
2017,04,06,10,02,22.50
2017,04,06,10,03,22.50
2017,04,06,10,04,22.50
2017,04,06,10,05,16.10
2017,04,06,10,06,17.70
2017,04,06,10,07,19.30
2017,04,06,10,08,17.70
2017,04,06,10,09,14.50
2017,04,06,10,10,14.50
2017,04,06,10,11,19.30
2017,04,06,10,12,19.30
2017,04,06,10,13,20.90
2017,04,06,10,14,27.40
2017,04,06,10,15,20.90
2017,04,06,10,16,17.70
2017,04,06,10,17,20.90
2017,04,06,10,18,17.70
2017,04,06,10,19,20.90
2017,04,06,10,20,14.50
2017,04,06,10,21,14.50
2017,04,06,10,22,14.50
2017,04,06,10,23,19.30
2017,04,06,10,24,14.50
2017,04,06,10,25,30.60
2017,04,06,10,26,24.20
2017,04,06,10,27,27.40
2017,04,06,10,28,22.50
2017,04,06,10,29,16.10
2017,04,06,10,30,20.90
2017,04,06,10,31,24.20
2017,04,06,10,32,19.30
2017,04,06,10,33,22.50
2017,04,06,10,34,16.10
2017,04,06,10,35,16.10
2017,04,06,10,36,20.90
2017,04,06,10,37,29.00
2017,04,06,10,38,17.70
2017,04,06,10,39,19.30
2017,04,06,10,40,19.30
2017,04,06,10,41,24.20
2017,04,06,10,42,12.90
2017,04,06,10,43,27.40
2017,04,06,10,44,29.00
2017,04,06,10,45,29.00
2017,04,06,10,46,20.90
2017,04,06,10,47,19.30
2017,04,06,10,48,17.70
2017,04,06,10,49,27.40
2017,04,06,10,50,24.20
2017,04,06,10,51,22.50
2017,04,06,10,52,22.50
2017,04,06,10,53,16.10
2017,04,06,10,54,20.90
2017,04,06,10,55,25.70
2017,04,06,10,56,16.10
2017,04,06,10,57,22.50
2017,04,06,10,58,19.30
2017,04,06,10,59,14.50
2017,04,06,11,00,11.30
2017,04,06,11,01,17.70
2017,04,06,11,02,20.90
2017,04,06,11,03,29.00
2017,04,06,11,04,25.70
2017,04,06,11,05,14.50
2017,04,06,11,06,19.30
2017,04,06,11,07,19.30
2017,04,06,11,08,14.50
2017,04,06,11,09,19.30
2017,04,06,11,10,20.90
2017,04,06,11,11,22.50
2017,04,06,11,12,20.90
2017,04,06,11,13,20.90
2017,04,06,11,14,17.70
2017,04,06,11,15,20.90
2017,04,06,11,16,16.10
2017,04,06,11,17,17.70
2017,04,06,11,18,20.90
2017,04,06,11,19,16.10
2017,04,06,11,20,20.90
2017,04,06,11,21,19.30
2017,04,06,11,22,14.50
2017,04,06,11,23,20.90
2017,04,06,11,24,16.10
2017,04,06,11,25,4.80
2017,04,06,11,26,12.90
2017,04,06,11,27,9.60
2017,04,06,11,28,22.50
2017,04,06,11,29,22.50
2017,04,06,11,30,17.70
2017,04,06,11,31,20.90
2017,04,06,11,32,14.50
2017,04,06,11,33,19.30
2017,04,06,11,34,8.10
2017,04,06,11,35,14.50
2017,04,06,11,36,22.50
2017,04,06,11,37,17.70
2017,04,06,11,38,12.90
2017,04,06,11,39,16.10
2017,04,06,11,40,9.60
2017,04,06,11,41,8.10
2017,04,06,11,42,8.10
2017,04,06,11,43,8.10
2017,04,06,11,44,9.60
2017,04,06,11,45,16.10
2017,04,06,11,46,17.70
2017,04,06,11,47,8.10
2017,04,06,11,48,17.70
2017,04,06,11,49,14.50
2017,04,06,11,50,16.10
2017,04,06,11,51,16.10
2017,04,06,11,52,14.50
2017,04,06,11,53,12.90
2017,04,06,11,54,9.60
2017,04,06,11,55,8.10
2017,04,06,11,56,12.90
2017,04,06,11,57,17.70
2017,04,06,11,58,11.30
2017,04,06,11,59,9.60
2017,04,06,12,00,8.10
2017,04,06,12,01,11.30
2017,04,06,12,02,11.30
2017,04,06,12,03,12.90
2017,04,06,12,04,9.60
2017,04,06,12,05,11.30
2017,04,06,12,06,11.30
2017,04,06,12,07,11.30
2017,04,06,12,08,14.50
2017,04,06,12,09,6.40
2017,04,06,12,10,8.10
2017,04,06,12,11,6.40
2017,04,06,12,12,4.80
2017,04,06,12,13,8.10
2017,04,06,12,14,14.50
2017,04,06,12,15,17.70
2017,04,06,12,16,9.60
2017,04,06,12,17,11.30
2017,04,06,12,18,8.10
2017,04,06,12,19,8.10
2017,04,06,12,20,9.60
2017,04,06,12,21,6.40
2017,04,06,12,22,8.10
2017,04,06,12,23,11.30
2017,04,06,12,24,9.60
2017,04,06,12,25,6.40
2017,04,06,12,26,6.40
2017,04,06,12,27,4.80
2017,04,06,12,28,3.20
2017,04,06,12,29,9.60
2017,04,06,12,30,6.40
2017,04,06,12,31,11.30
2017,04,06,12,32,9.60
2017,04,06,12,33,4.80
2017,04,06,12,34,3.20
2017,04,06,12,35,4.80
2017,04,06,12,36,8.10
2017,04,06,12,37,8.10
2017,04,06,12,38,9.60
2017,04,06,12,39,6.40
2017,04,06,12,40,4.80
2017,04,06,12,41,6.40
2017,04,06,12,42,6.40
2017,04,06,12,43,11.30
2017,04,06,12,44,11.30
2017,04,06,12,45,9.60
2017,04,06,12,46,9.60
2017,04,06,12,47,6.40
2017,04,06,12,48,8.10
2017,04,06,12,49,3.20
2017,04,06,12,50,8.10
2017,04,06,12,51,9.60
2017,04,06,12,52,8.10
2017,04,06,12,53,6.40
2017,04,06,12,54,3.20
2017,04,06,12,55,6.40
2017,04,06,12,56,11.30
2017,04,06,12,57,9.60
2017,04,06,12,58,9.60
2017,04,06,12,59,9.60
2017,04,06,13,00,8.10
2017,04,06,13,01,8.10
2017,04,06,13,02,6.40
2017,04,06,13,03,11.30
2017,04,06,13,04,6.40
2017,04,06,13,05,11.30
2017,04,06,13,06,9.60
2017,04,06,13,07,9.60
2017,04,06,13,08,8.10
2017,04,06,13,09,6.40
2017,04,06,13,10,1.60
2017,04,06,13,11,8.10
2017,04,06,13,12,6.40
2017,04,06,13,13,3.20
2017,04,06,13,14,3.20
2017,04,06,13,15,9.60
2017,04,06,13,16,8.10
2017,04,06,13,17,8.10
2017,04,06,13,18,6.40
2017,04,06,13,19,8.10
2017,04,06,13,20,6.40
2017,04,06,13,21,3.20
2017,04,06,13,22,3.20
2017,04,06,13,23,1.60
2017,04,06,13,24,3.20
2017,04,06,13,25,9.60
2017,04,06,13,26,9.60
2017,04,06,13,27,11.30
2017,04,06,13,28,11.30
2017,04,06,13,29,9.60
2017,04,06,13,30,9.60
2017,04,06,13,31,9.60
2017,04,06,13,32,8.10
2017,04,06,13,33,12.90
2017,04,06,13,34,12.90
2017,04,06,13,35,11.30
2017,04,06,13,36,14.50
2017,04,06,13,37,14.50
2017,04,06,13,38,12.90
2017,04,06,13,39,14.50
2017,04,06,13,40,9.60
2017,04,06,13,41,9.60
2017,04,06,13,42,6.40
2017,04,06,13,43,11.30
2017,04,06,13,44,11.30
2017,04,06,13,45,12.90
2017,04,06,13,46,12.90
2017,04,06,13,47,11.30
2017,04,06,13,48,12.90
2017,04,06,13,49,9.60
2017,04,06,13,50,8.10
2017,04,06,13,51,12.90
2017,04,06,13,52,9.60
2017,04,06,13,53,8.10
2017,04,06,13,54,9.60
2017,04,06,13,55,9.60
2017,04,06,13,56,8.10
2017,04,06,13,57,9.60
2017,04,06,13,58,11.30
2017,04,06,13,59,9.60
2017,04,06,14,00,8.10
2017,04,06,14,01,8.10
2017,04,06,14,02,11.30
2017,04,06,14,03,9.60
2017,04,06,14,04,9.60
2017,04,06,14,05,9.60
2017,04,06,14,06,6.40
2017,04,06,14,07,6.40
2017,04,06,14,08,6.40
2017,04,06,14,09,12.90
2017,04,06,14,10,9.60
2017,04,06,14,11,12.90
2017,04,06,14,12,9.60
2017,04,06,14,13,11.30
2017,04,06,14,14,8.10
2017,04,06,14,15,8.10
2017,04,06,14,16,9.60
2017,04,06,14,17,11.30
2017,04,06,14,18,9.60
2017,04,06,14,19,3.20
2017,04,06,14,20,8.10
2017,04,06,14,21,9.60
2017,04,06,14,22,11.30
2017,04,06,14,23,11.30
2017,04,06,14,24,12.90
2017,04,06,14,25,11.30
2017,04,06,14,26,17.70
2017,04,06,14,27,14.50
2017,04,06,14,28,9.60
2017,04,06,14,29,12.90
2017,04,06,14,30,11.30
2017,04,06,14,31,9.60
2017,04,06,14,32,12.90
2017,04,06,14,33,11.30
2017,04,06,14,34,8.10
2017,04,06,14,35,12.90
2017,04,06,14,36,12.90
2017,04,06,14,37,9.60
2017,04,06,14,38,14.50
2017,04,06,14,39,12.90
2017,04,06,14,40,8.10
2017,04,06,14,41,11.30
2017,04,06,14,42,12.90
2017,04,06,14,43,9.60
2017,04,06,14,44,9.60
2017,04,06,14,45,11.30
2017,04,06,14,46,12.90
2017,04,06,14,47,9.60
2017,04,06,14,48,12.90
2017,04,06,14,49,12.90
2017,04,06,14,50,9.60
2017,04,06,14,51,9.60
2017,04,06,14,52,11.30
2017,04,06,14,53,12.90
2017,04,06,14,54,11.30
2017,04,06,14,55,9.60
2017,04,06,14,56,8.10
2017,04,06,14,57,11.30
2017,04,06,14,58,12.90
2017,04,06,14,59,8.10
2017,04,06,15,00,9.60
2017,04,06,15,01,8.10
2017,04,06,15,02,11.30
2017,04,06,15,03,9.60
2017,04,06,15,04,12.90
2017,04,06,15,05,11.30
2017,04,06,15,06,14.50
2017,04,06,15,07,14.50
2017,04,06,15,08,12.90
2017,04,06,15,09,11.30
2017,04,06,15,10,8.10
2017,04,06,15,11,11.30
2017,04,06,15,12,11.30
2017,04,06,15,13,11.30
2017,04,06,15,14,8.10
2017,04,06,15,15,11.30
2017,04,06,15,16,8.10
2017,04,06,15,17,9.60
2017,04,06,15,18,11.30
2017,04,06,15,19,12.90
2017,04,06,15,20,11.30
2017,04,06,15,21,8.10
2017,04,06,15,22,4.80
2017,04,06,15,23,4.80
2017,04,06,15,24,8.10
2017,04,06,15,25,8.10
2017,04,06,15,26,12.90
2017,04,06,15,27,9.60
2017,04,06,15,28,11.30
2017,04,06,15,29,9.60
2017,04,06,15,30,6.40
2017,04,06,15,31,6.40
2017,04,06,15,32,6.40
2017,04,06,15,33,12.90
2017,04,06,15,34,11.30
2017,04,06,15,35,12.90
2017,04,06,15,36,9.60
2017,04,06,15,37,8.10
2017,04,06,15,38,9.60
2017,04,06,15,39,9.60
2017,04,06,15,40,9.60
2017,04,06,15,41,9.60
2017,04,06,15,42,8.10
2017,04,06,15,43,6.40
2017,04,06,15,44,8.10
2017,04,06,15,45,8.10
2017,04,06,15,46,9.60
2017,04,06,15,47,9.60
2017,04,06,15,48,8.10
2017,04,06,15,49,8.10
2017,04,06,15,50,9.60
2017,04,06,15,51,9.60
2017,04,06,15,52,9.60
2017,04,06,15,53,9.60
2017,04,06,15,54,6.40
2017,04,06,15,55,6.40
2017,04,06,15,56,6.40
2017,04,06,15,57,9.60
2017,04,06,15,58,9.60
2017,04,06,15,59,9.60
2017,04,06,16,00,8.10
2017,04,06,16,01,9.60
2017,04,06,16,02,6.40
2017,04,06,16,03,9.60
2017,04,06,16,04,8.10
2017,04,06,16,05,6.40
2017,04,06,16,06,8.10
2017,04,06,16,07,8.10
2017,04,06,16,08,12.90
2017,04,06,16,09,9.60
2017,04,06,16,10,9.60
2017,04,06,16,11,9.60
2017,04,06,16,12,8.10
2017,04,06,16,13,8.10
2017,04,06,16,14,6.40
2017,04,06,16,15,9.60
2017,04,06,16,16,9.60
2017,04,06,16,17,8.10
2017,04,06,16,18,9.60
2017,04,06,16,19,14.50
2017,04,06,16,20,17.70
2017,04,06,16,21,14.50
2017,04,06,16,22,14.50
2017,04,06,16,23,17.70
2017,04,06,16,24,11.30
2017,04,06,16,25,8.10
2017,04,06,16,26,9.60
2017,04,06,16,27,8.10
2017,04,06,16,28,11.30
2017,04,06,16,29,9.60
2017,04,06,16,30,14.50
2017,04,06,16,31,12.90
2017,04,06,16,32,14.50
2017,04,06,16,33,11.30
2017,04,06,16,34,8.10
2017,04,06,16,35,9.60
2017,04,06,16,36,8.10
2017,04,06,16,37,12.90
2017,04,06,16,38,9.60
2017,04,06,16,39,12.90
2017,04,06,16,40,12.90
2017,04,06,16,41,12.90
2017,04,06,16,42,9.60
2017,04,06,16,43,11.30
2017,04,06,16,44,8.10
2017,04,06,16,45,16.10
2017,04,06,16,46,14.50
2017,04,06,16,47,14.50
2017,04,06,16,48,14.50
2017,04,06,16,49,12.90
2017,04,06,16,50,11.30
2017,04,06,16,51,14.50
2017,04,06,16,52,11.30
2017,04,06,16,53,9.60
2017,04,06,16,54,12.90
2017,04,06,16,55,11.30
2017,04,06,16,56,12.90
2017,04,06,16,57,17.70
2017,04,06,16,58,17.70
2017,04,06,16,59,11.30
2017,04,06,17,00,11.30
2017,04,06,17,01,12.90
2017,04,06,17,02,9.60
2017,04,06,17,03,9.60
2017,04,06,17,04,11.30
2017,04,06,17,05,12.90
2017,04,06,17,06,14.50
2017,04,06,17,07,11.30
2017,04,06,17,08,12.90
2017,04,06,17,09,11.30
2017,04,06,17,10,9.60
2017,04,06,17,11,8.10
2017,04,06,17,12,12.90
2017,04,06,17,13,9.60
2017,04,06,17,14,6.40
2017,04,06,17,15,11.30
2017,04,06,17,16,8.10
2017,04,06,17,17,6.40
2017,04,06,17,18,9.60
2017,04,06,17,19,12.90
2017,04,06,17,20,11.30
2017,04,06,17,21,11.30
2017,04,06,17,22,14.50
2017,04,06,17,23,9.60
2017,04,06,17,24,11.30
2017,04,06,17,25,9.60
2017,04,06,17,26,8.10
2017,04,06,17,27,9.60
2017,04,06,17,28,8.10
2017,04,06,17,29,8.10
2017,04,06,17,30,9.60
2017,04,06,17,31,8.10
2017,04,06,17,32,8.10
2017,04,06,17,33,8.10
2017,04,06,17,34,9.60
2017,04,06,17,35,8.10
2017,04,06,17,36,11.30
2017,04,06,17,37,8.10
2017,04,06,17,38,6.40
2017,04,06,17,39,9.60
2017,04,06,17,40,9.60
2017,04,06,17,41,8.10
2017,04,06,17,42,9.60
2017,04,06,17,43,9.60
2017,04,06,17,44,11.30
2017,04,06,17,45,6.40
2017,04,06,17,46,8.10
2017,04,06,17,47,8.10
2017,04,06,17,48,8.10
2017,04,06,17,49,8.10
2017,04,06,17,50,8.10
2017,04,06,17,51,11.30
2017,04,06,17,52,8.10
2017,04,06,17,53,6.40
2017,04,06,17,54,12.90
2017,04,06,17,55,9.60
2017,04,06,17,56,9.60
2017,04,06,17,57,8.10
2017,04,06,17,58,8.10
2017,04,06,17,59,8.10
2017,04,06,18,00,12.90
2017,04,06,18,01,12.90
2017,04,06,18,02,12.90
2017,04,06,18,03,8.10
2017,04,06,18,04,9.60
2017,04,06,18,05,8.10
2017,04,06,18,06,8.10
2017,04,06,18,07,8.10
2017,04,06,18,08,8.10
2017,04,06,18,09,6.40
2017,04,06,18,10,8.10
2017,04,06,18,11,8.10
2017,04,06,18,12,6.40
2017,04,06,18,13,12.90
2017,04,06,18,14,16.10
2017,04,06,18,15,9.60
2017,04,06,18,16,12.90
2017,04,06,18,17,16.10
2017,04,06,18,18,11.30
2017,04,06,18,19,9.60
2017,04,06,18,20,6.40
2017,04,06,18,21,6.40
2017,04,06,18,22,4.80
2017,04,06,18,23,9.60
2017,04,06,18,24,9.60
2017,04,06,18,25,9.60
2017,04,06,18,26,9.60
2017,04,06,18,27,8.10
2017,04,06,18,28,9.60
2017,04,06,18,29,8.10
2017,04,06,18,30,6.40
2017,04,06,18,31,6.40
2017,04,06,18,32,4.80
2017,04,06,18,33,11.30
2017,04,06,18,34,9.60
2017,04,06,18,35,8.10
2017,04,06,18,36,9.60
2017,04,06,18,37,11.30
2017,04,06,18,38,9.60
2017,04,06,18,39,9.60
2017,04,06,18,40,12.90
2017,04,06,18,41,6.40
2017,04,06,18,42,8.10
2017,04,06,18,43,8.10